Find Semi-1P

NORAD ID: 66298 Int'l Des: 2025-248 Owner: UNKTR Country: TR operational
LEOCIRCULAR

Current View

Loading 3D Globe...

About Semi-1P

Description loading...

Upcoming Passes

Passes for default location (London). Set your location on the main map for personalized predictions.

Altitude History

Loading altitude history...

Two-Line Element Set

1 66298U 25248F 26146.24413845 .00003199 00000-0 15517-3 0 9996
2 66298 45.3813 237.5412 0014042 268.6406 91.2872 15.20747381 31195
Epoch: May 26, 2026 • Age: 17 hours

Current Status

Altitude 506.9 km
Velocity 7.62 km/s
Sub-Earth Point -39.38°S, 48.37°W
Launch Date Nov 2, 2025
Age 0.5 years
Type other

Technical Details

Classification Payload
Mass 12.00 kg
Dry Mass 12.00 kg
Total Mass 12.00 kg
Length 0.30 m
Diameter 0.20 m
Span 0.30 m
Shape Box
Manufacturer UNKTR
Bus Type Cubesat 6U
Phase Status In Orbit
Owner/State UNKTR/TR

Most Searched